This is the latest recevied weather packets stored in our database for station/object DM4SB-13. If no packets are shown the sender has not sent any weather packets the latest 10 day(s).
| Time | Temp. | Humidity | Pressure | Rain* | Wind** | Luminosity | Snow |
|---|---|---|---|---|---|---|---|
| 1777643418 | 34.44° C | 19% | 1025 hPa | - | - | - | - |
| 1777642818 | 30° C | 23% | 1025 hPa | - | - | - | - |
| 1777642217 | 19.44° C | 33% | 1025.2 hPa | - | - | - | - |
| 1777641618 | 17.78° C | 36% | 1025.2 hPa | - | - | - | - |
| 1777641018 | 16.67° C | 36% | 1025.3 hPa | - | - | - | - |
| 1777640417 | 16.67° C | 37% | 1025.6 hPa | - | - | - | - |
| 1777639818 | 16.11° C | 36% | 1025.6 hPa | - | - | - | - |
| 1777639218 | 15.56° C | 36% | 1025.7 hPa | - | - | - | - |
| 1777638618 | 15.56° C | 36% | 1026 hPa | - | - | - | - |
| 1777638017 | 15.56° C | 37% | 1026 hPa | - | - | - | - |
| 1777637418 | 15.56° C | 37% | 1026.1 hPa | - | - | - | - |
| 1777636817 | 15° C | 37% | 1026.2 hPa | - | - | - | - |
| 1777636218 | 15° C | 38% | 1026.2 hPa | - | - | - | - |
| 1777635618 | 15° C | 37% | 1026.6 hPa | - | - | - | - |
| 1777635017 | 15° C | 37% | 1026.6 hPa | - | - | - | - |
| 1777634418 | 14.44° C | 37% | 1026.7 hPa | - | - | - | - |
| 1777633818 | 14.44° C | 38% | 1027.1 hPa | - | - | - | - |
| 1777633218 | 13.89° C | 37% | 1027.3 hPa | - | - | - | - |
| 1777632617 | 13.89° C | 38% | 1027.4 hPa | - | - | - | - |
| 1777632018 | 13.89° C | 38% | 1027.6 hPa | - | - | - | - |
| 1777631417 | 13.89° C | 38% | 1027.6 hPa | - | - | - | - |
| 1777630817 | 13.33° C | 38% | 1027.7 hPa | - | - | - | - |
| 1777630217 | 13.33° C | 38% | 1028 hPa | - | - | - | - |
| 1777629618 | 12.78° C | 38% | 1028.2 hPa | - | - | - | - |
| 1777629018 | 12.78° C | 38% | 1028.3 hPa | - | - | - | - |
* Rain since midnight (hover to see other rain measurements)
** Current wind speed in m/s (hover to see current wind gust speed)